Time,TemperatureF,DewpointF,PressureIn,WindDirection,WindDirectionDegrees,WindSpeedMPH,WindSpeedGustMPH,Humidity,HourlyPrecipIn,Conditions,Clouds,dailyrainin,SoftwareType,DateUTC
2013-03-06 00:00:00,32.2,17.4,29.91,SE,135,0.0,0.0,54,0.00,,---,0.00,VWS V14.01,2013-03-06 05:00:00,
2013-03-06 00:05:00,33.1,19.1,29.91,East,80,3.1,3.1,56,0.00,,---,0.00,VWS V14.01,2013-03-06 05:05:00,
2013-03-06 00:10:00,34.0,20.4,29.91,East,84,0.0,0.0,57,0.00,,---,0.00,VWS V14.01,2013-03-06 05:10:00,
2013-03-06 05:36:00,40.1,23.4,29.80,NE,56,11.0,11.0,51,0.00,,---,0.00,VWS V14.01,2013-03-06 10:36:00,
2013-03-06 05:41:00,40.1,23.0,29.80,East,87,11.0,11.0,50,0.00,,---,0.00,VWS V14.01,2013-03-06 10:41:00,
2013-03-06 05:46:00,40.3,23.1,29.80,ENE,73,17.9,17.9,50,0.00,,---,0.00,VWS V14.01,2013-03-06 10:46:00,
2013-03-06 05:51:00,40.3,23.6,29.80,ENE,67,15.9,15.9,51,0.00,,---,0.00,VWS V14.01,2013-03-06 10:51:00,
2013-03-06 05:56:00,40.3,24.1,29.80,NE,38,13.6,13.6,52,0.00,,---,0.00,VWS V14.01,2013-03-06 10:56:00,
2013-03-06 06:01:00,40.1,24.4,29.80,NE,48,10.5,10.5,53,0.00,,---,0.00,VWS V14.01,2013-03-06 11:01:00,
2013-03-06 06:06:00,39.9,24.2,29.80,East,87,8.3,8.3,53,0.00,,---,0.00,VWS V14.01,2013-03-06 11:06:00,
2013-03-06 06:11:00,40.1,24.4,29.80,ENE,73,15.0,15.0,53,0.00,,---,0.00,VWS V14.01,2013-03-06 11:11:00,
2013-03-06 06:16:00,40.1,24.4,29.80,ENE,76,9.2,9.2,53,0.00,,---,0.00,VWS V14.01,2013-03-06 11:16:00,
2013-03-06 06:21:00,40.3,24.5,29.80,NE,44,13.2,13.2,53,0.00,,---,0.00,VWS V14.01,2013-03-06 11:21:00,
2013-03-06 06:26:00,40.3,24.5,29.80,NE,36,11.9,11.9,53,0.00,,---,0.00,VWS V14.01,2013-03-06 11:26:00,
2013-03-06 06:31:00,40.1,24.4,29.80,ENE,78,8.7,8.7,53,0.00,,---,0.00,VWS V14.01,2013-03-06 11:31:00,
2013-03-06 06:36:00,40.1,24.4,29.80,East,85,11.0,11.0,53,0.00,,---,0.00,VWS V14.01,2013-03-06 11:36:00,
2013-03-06 06:41:00,40.3,24.5,29.80,ENE,62,13.2,13.2,53,0.00,,---,0.00,VWS V14.01,2013-03-06 11:41:00,
2013-03-06 06:46:00,40.3,24.1,29.80,NNE,19,17.4,17.4,52,0.00,,---,0.00,VWS V14.01,2013-03-06 11:46:00,
2013-03-06 06:51:00,40.3,23.6,29.80,NE,41,15.4,15.4,51,0.00,,---,0.00,VWS V14.01,2013-03-06 11:51:00,
2013-03-06 06:56:00,40.5,23.3,29.77,NE,51,10.5,10.5,50,0.00,,---,0.00,VWS V14.01,2013-03-06 11:56:00,
2013-03-06 07:01:00,40.5,23.8,29.77,ENE,64,13.2,13.2,51,0.00,,---,0.00,VWS V14.01,2013-03-06 12:01:00,
2013-03-06 07:06:00,40.5,23.8,29.77,ENE,64,5.4,5.4,51,0.00,,---,0.00,VWS V14.01,2013-03-06 12:06:00,
2013-03-06 07:11:00,40.6,23.9,29.77,North,8,11.0,11.0,51,0.00,,---,0.00,VWS V14.01,2013-03-06 12:11:00,
2013-03-06 07:16:00,40.6,23.9,29.80,ENE,71,12.8,12.8,51,0.00,,---,0.00,VWS V14.01,2013-03-06 12:16:00,
2013-03-06 07:21:00,40.6,23.9,29.80,NE,35,11.0,11.0,51,0.00,,---,0.00,VWS V14.01,2013-03-06 12:21:00,
2013-03-06 07:26:00,40.6,23.9,29.80,ENE,77,4.0,4.0,51,0.00,,---,0.00,VWS V14.01,2013-03-06 12:26:00,
2013-03-06 07:31:00,40.6,24.4,29.80,NE,52,7.6,7.6,52,0.00,,---,0.00,VWS V14.01,2013-03-06 12:31:00,
2013-03-06 07:36:00,40.6,24.4,29.80,East,86,10.5,10.5,52,0.00,,---,0.00,VWS V14.01,2013-03-06 12:36:00,
2013-03-06 07:41:00,40.6,23.9,29.80,NE,46,6.3,6.3,51,0.00,,---,0.00,VWS V14.01,2013-03-06 12:41:00,
2013-03-06 07:46:00,40.6,23.9,29.80,NE,49,17.0,17.0,51,0.00,,---,0.00,VWS V14.01,2013-03-06 12:46:00,
2013-03-06 07:51:00,40.8,23.6,29.80,NNE,16,8.3,8.3,50,0.00,,---,0.00,VWS V14.01,2013-03-06 12:51:00,
2013-03-06 07:56:00,40.8,23.6,29.80,ENE,76,17.0,17.0,50,0.00,,---,0.00,VWS V14.01,2013-03-06 12:56:00,
2013-03-06 08:01:00,41.0,23.3,29.80,ENE,59,10.5,10.5,49,0.00,,---,0.00,VWS V14.01,2013-03-06 13:01:00,
2013-03-06 18:38:00,38.3,26.0,29.80,East,98,15.4,15.4,61,0.00,,---,0.00,VWS V14.01,2013-03-06 23:38:00,
2013-03-06 18:43:00,38.1,26.3,29.77,North,349,17.9,17.9,62,0.00,,---,0.00,VWS V14.01,2013-03-06 23:43:00,
2013-03-06 18:48:00,37.9,26.9,29.77,NNE,22,15.0,15.0,64,0.12,,---,0.12,VWS V14.01,2013-03-06 23:48:00,
2013-03-06 18:53:00,37.9,27.2,29.77,NE,46,16.3,16.3,65,0.12,,---,0.12,VWS V14.01,2013-03-06 23:53:00,
2013-03-06 18:58:00,38.1,27.8,29.77,North,9,22.4,22.4,66,0.12,,---,0.12,VWS V14.01,2013-03-06 23:58:00,
2013-03-06 19:03:00,38.1,27.8,29.77,NNE,18,17.4,17.4,66,0.12,,---,0.12,VWS V14.01,2013-03-07 00:03:00,
2013-03-06 19:08:00,38.1,27.8,29.77,ENE,76,12.8,12.8,66,0.12,,---,0.12,VWS V14.01,2013-03-07 00:08:00,
2013-03-06 19:13:00,38.1,27.4,29.77,NNE,33,10.5,10.5,65,0.12,,---,0.12,VWS V14.01,2013-03-07 00:13:00,
2013-03-06 19:18:00,38.1,27.0,29.80,NNW,346,10.1,10.1,64,0.12,,---,0.12,VWS V14.01,2013-03-07 00:18:00,
2013-03-06 19:23:00,38.1,27.0,29.80,NNW,337,15.0,15.0,64,0.12,,---,0.12,VWS V14.01,2013-03-07 00:23:00,
2013-03-06 19:28:00,38.1,26.3,29.80,NE,44,18.3,18.3,62,0.12,,---,0.12,VWS V14.01,2013-03-07 00:28:00,
2013-03-06 19:33:00,38.1,25.5,29.80,ENE,58,16.3,16.3,60,0.12,,---,0.12,VWS V14.01,2013-03-07 00:33:00,
2013-03-06 19:38:00,38.1,25.5,29.80,NNE,26,21.0,21.0,60,0.12,,---,0.12,VWS V14.01,2013-03-07 00:38:00,
2013-03-06 19:43:00,38.1,25.5,29.80,East,81,12.3,12.3,60,0.12,,---,0.12,VWS V14.01,2013-03-07 00:43:00,
2013-03-06 19:48:00,38.1,25.5,29.80,NNE,31,11.0,11.0,60,0.12,,---,0.12,VWS V14.01,2013-03-07 00:48:00,
2013-03-06 19:53:00,38.1,25.5,29.80,NE,37,8.1,8.1,60,0.12,,---,0.12,VWS V14.01,2013-03-07 00:53:00,
2013-03-06 19:58:00,37.8,25.5,29.80,ENE,72,8.3,8.3,61,0.12,,---,0.12,VWS V14.01,2013-03-07 00:58:00,
2013-03-06 20:03:00,37.4,26.0,29.80,ENE,72,8.3,8.3,63,0.00,,---,0.12,VWS V14.01,2013-03-07 01:03:00,
2013-03-06 20:08:00,37.2,26.5,29.80,NNW,330,7.6,7.6,65,0.04,,---,0.16,VWS V14.01,2013-03-07 01:08:00,
2013-03-06 20:13:00,37.0,26.4,29.80,NE,56,12.8,12.8,65,0.04,,---,0.16,VWS V14.01,2013-03-07 01:13:00,
2013-03-06 20:18:00,37.0,26.4,29.80,NE,38,11.0,11.0,65,0.04,,---,0.16,VWS V14.01,2013-03-07 01:18:00,
2013-03-06 20:24:00,36.9,27.3,29.80,NE,46,14.1,14.1,68,0.04,,---,0.16,VWS V14.01,2013-03-07 01:24:00,
2013-03-06 20:29:00,36.9,27.7,29.80,NE,56,16.3,16.3,69,0.04,,---,0.16,VWS V14.01,2013-03-07 01:29:00,
2013-03-06 20:34:00,36.9,27.7,29.80,NNW,341,8.1,8.1,69,0.04,,---,0.16,VWS V14.01,2013-03-07 01:34:00,
2013-03-06 20:39:00,36.9,27.7,29.80,North,353,11.4,11.4,69,0.04,,---,0.16,VWS V14.01,2013-03-07 01:39:00,
2013-03-06 20:44:00,36.7,27.5,29.80,North,0,24.6,24.6,69,0.04,,---,0.16,VWS V14.01,2013-03-07 01:44:00,
2013-03-06 20:49:00,36.7,27.5,29.80,North,2,15.4,15.4,69,0.04,,---,0.16,VWS V14.01,2013-03-07 01:49:00,
2013-03-06 20:54:00,36.7,27.5,29.80,NNE,32,11.0,11.0,69,0.04,,---,0.16,VWS V14.01,2013-03-07 01:54:00,
2013-03-06 20:59:00,36.7,27.5,29.80,ENE,62,5.4,5.4,69,0.04,,---,0.16,VWS V14.01,2013-03-07 01:59:00,
2013-03-06 21:04:00,36.5,27.7,29.80,ENE,72,13.2,13.2,70,0.04,,---,0.16,VWS V14.01,2013-03-07 02:04:00,
2013-03-06 21:09:00,36.7,27.8,29.80,ENE,65,8.3,8.3,70,0.04,,---,0.16,VWS V14.01,2013-03-07 02:09:00,
2013-03-06 21:14:00,36.7,27.8,29.80,North,357,7.6,7.6,70,0.04,,---,0.16,VWS V14.01,2013-03-07 02:14:00,
2013-03-06 21:19:00,36.5,27.3,29.80,North,9,6.3,6.3,69,0.04,,---,0.20,VWS V14.01,2013-03-07 02:19:00,
2013-03-06 21:25:00,36.5,27.3,29.80,NNE,32,17.0,17.0,69,0.04,,---,0.20,VWS V14.01,2013-03-07 02:25:00,
2013-03-06 21:30:00,36.5,27.3,29.80,NNW,346,13.2,13.2,69,0.04,,---,0.20,VWS V14.01,2013-03-07 02:30:00,
2013-03-06 21:35:00,36.5,27.7,29.80,NNE,22,10.1,10.1,70,0.04,,---,0.00,VWS V14.01,2013-03-07 02:35:00,
2013-03-06 21:40:00,36.5,27.7,29.80,NE,51,8.7,8.7,70,0.04,,---,0.20,VWS V14.01,2013-03-07 02:40:00,
2013-03-06 21:45:00,36.7,27.1,29.83,NE,47,10.5,10.5,68,0.04,,---,0.20,VWS V14.01,2013-03-07 02:45:00,
2013-03-06 21:50:00,36.7,27.1,29.83,NE,41,17.4,17.4,68,0.04,,---,0.20,VWS V14.01,2013-03-07 02:50:00,
2013-03-06 21:55:00,36.9,26.6,29.83,NNE,15,8.3,8.3,66,0.04,,---,0.20,VWS V14.01,2013-03-07 02:55:00,
2013-03-06 22:00:00,36.9,26.6,29.83,NE,54,12.8,12.8,66,0.04,,---,0.20,VWS V14.01,2013-03-07 03:00:00,
2013-03-06 22:05:00,36.9,26.6,29.83,NE,36,15.4,15.4,66,0.04,,---,0.20,VWS V14.01,2013-03-07 03:05:00,
2013-03-06 22:10:00,37.0,24.9,29.83,ENE,64,23.3,23.3,61,0.04,,---,0.20,VWS V14.01,2013-03-07 03:10:00,
2013-03-06 22:15:00,37.0,24.9,29.83,NNW,331,11.9,11.9,61,0.04,,---,0.20,VWS V14.01,2013-03-07 03:15:00,
2013-03-06 22:20:00,36.9,23.9,29.83,NNW,339,11.0,11.0,59,0.04,,---,0.20,VWS V14.01,2013-03-07 03:20:00,
2013-03-06 22:25:00,36.9,24.3,29.83,NNW,337,20.1,20.1,60,0.04,,---,0.20,VWS V14.01,2013-03-07 03:25:00,
2013-03-06 22:30:00,36.7,23.7,29.83,NNW,337,20.1,20.1,59,0.00,,---,0.20,VWS V14.01,2013-03-07 03:30:00,
2013-03-06 22:35:00,36.5,24.0,29.83,NNE,14,6.3,6.3,60,0.00,,---,0.20,VWS V14.01,2013-03-07 03:35:00,
2013-03-06 22:40:00,36.3,24.2,29.83,NE,43,8.1,8.1,61,0.00,,---,0.20,VWS V14.01,2013-03-07 03:40:00,
2013-03-06 22:45:00,36.3,24.6,29.83,NNE,13,10.5,10.5,62,0.00,,---,0.20,VWS V14.01,2013-03-07 03:45:00,
2013-03-06 22:50:00,36.3,24.6,29.83,NE,45,19.2,19.2,62,0.00,,---,0.20,VWS V14.01,2013-03-07 03:50:00,
2013-03-06 22:55:00,36.3,24.6,29.83,NNW,337,12.8,12.8,62,0.00,,---,0.20,VWS V14.01,2013-03-07 03:55:00,
2013-03-06 23:00:00,36.7,24.1,29.83,NW,325,22.4,22.4,60,0.00,,---,0.20,VWS V14.01,2013-03-07 04:00:00,
2013-03-06 23:05:00,36.7,24.1,29.83,ENE,65,8.1,8.1,60,0.00,,---,0.20,VWS V14.01,2013-03-07 04:05:00,